Location: Jackson Park
(37.2862°N, 79.9123°W)
Time: 20:07:39
(UTC+00:00)

Vanguard 3 - Pass Details

Date: 12 May 2026
Orbit: 507 x 3205 km, 33.4° (Epoch: 31 May)

Event Time Altitude Azimuth Distance (km) Brightness Sun altitude
Rises 00:11:45 0° 278° (W) 6,948 13.9 0.3°
Reaches altitude 10° 00:16:52 10° 276° (W) 5,689 13.1 -0.6°
Maximum altitude 00:32:37 61° 202° (SSW) 2,224 9.4 -3.4°
Drops below altitude 10° 00:41:45 10° 124° (SE) 3,450 9.7 -5.1°
Enters shadow 00:42:44 - 123° (ESE) 3,729 9.8 -5.2°
Sets 00:44:07 0° 121° (ESE) 4,141 - -5.5°
